Location: Saliceto
(44.4167°N, 8.1667°E)
Time: 20:00:12
(UTC+00:00)

Daily predictions for brighter satellites

Satellite Brightness Start Highest point End
(mag) Time Altitude Azimuth Time Altitude Azimuth Time Altitude Azimuth
NOSS 3-4 (A) 3.5 16:13:57 10° SSW 16:19:51 64° ESE 16:26:06 10° NE
NOSS 3-4 (C) 3.6 16:14:04 10° SSW 16:19:58 64° ESE 16:26:12 10° NE
USA 267 3.5 16:15:08 10° SE 16:21:40 77° SW 16:28:15 10° NW
SJ-7 4.4 16:18:53 10° SSE 16:23:05 77° ENE 16:27:17 10° N
Cosmos 2333 4.5 16:17:37 10° S 16:23:06 52° ESE 16:28:41 10° NE
Cosmos 1346 Rocket 3.1 16:19:19 10° N 16:23:08 45° ENE 16:26:58 10° SSE
BREEZE-M DEB (TANK) 3.2 16:16:17 10° WNW 16:24:24 50° N 16:27:19 10° ENE
ATLAS 3B R/B 2.7 16:19:17 10° NNW 16:25:59 65° NE 16:32:48 10° SE
CZ-4B R/B 3.7 16:21:11 10° S 16:26:26 65° WSW 16:31:48 10° NNW
Cosmos 1400 Rocket 3.6 16:23:34 10° SSW 16:27:38 58° WNW 16:31:41 10° N
Cosmos 371 Rocket 3.3 16:23:17 10° NNW 16:28:12 81° ENE 16:33:05 10° SSE
Cosmos 2322 3.8 16:23:04 10° SSW 16:28:44 68° ESE 16:34:24 10° NNE
Cosmos 1733 Rocket 4.0 16:26:40 10° NNE 16:30:19 25° ENE 16:33:58 10° SE
Iridium 82 4.5 16:27:20 10° S 16:30:52 67° E 16:34:23 10° N
Atlas Centaur 2 4.5 16:24:58 10° SW 16:31:26 29° S 16:38:27 10° ESE
Cosmos 1269 Rocket 4.0 16:28:26 10° SSW 16:33:43 74° ESE 16:39:02 10° NNE
Cosmos 1869 Rocket 3.6 16:30:54 10° N 16:35:20 89° E 16:39:47 10° S
CZ-4B R/B 3.9 16:32:39 10° NNW 16:35:26 22° WNW 16:38:14 10° WSW
YAOGAN 6 4.1 16:34:48 10° ESE 16:36:59 16° ENE 16:39:11 10° NNE
IRS-1C Rocket 4.1 16:34:41 10° SSE 16:39:56 75° ENE 16:45:13 10° N
Cosmos 494 Rocket 4.1 16:35:03 10° SSW 16:40:19 83° WNW 16:45:37 10° NNE
RESURS DK-1 3.4 16:37:01 10° SSE 16:40:31 28° ESE 16:43:37 12° NE
ISS -2.4 16:38:30 10° NW 16:41:22 25° N 16:43:34 14° ENE
Cosmos 2278 Rocket 3.0 16:36:49 10° N 16:41:44 29° NE 16:46:37 10° ESE
Meteor 1-11 Rocket 4.3 16:36:35 10° N 16:42:08 38° ENE 16:47:40 10° SE
Cosmos 1689 Rocket 4.4 16:40:05 10° NNW 16:42:40 25° WNW 16:45:14 10° SW
COBE Rocket 3.9 16:41:14 10° NNE 16:45:48 57° E 16:50:23 10° S
Okean O Rocket 3.3 16:42:27 10° SSW 16:46:29 37° W 16:50:33 10° NNW
Meteor 1-27 Rocket 4.3 16:44:39 10° SSE 16:49:45 35° E 16:54:58 10° NNE
Cosmos 2360 Rocket 3.0 16:44:29 10° SW 16:50:00 51° WNW 16:55:33 10° NNE
ATLAS 5 CENTAUR R/B 2.3 16:48:28 10° S 16:50:39 21° SE 16:51:26 17° E
Cosmos 2333 Rocket 2.3 16:48:07 10° S 16:53:46 64° ESE 16:59:28 10° NNE
PSLV R/B 4.4 16:50:01 10° N 16:54:11 66° WNW 16:58:16 10° SSW
Okean-O 2.7 16:51:00 10° SSE 16:55:17 51° ENE 16:59:36 10° N
AQUARIUS 4.1 16:52:40 10° SSE 16:57:10 87° ENE 17:01:41 10° NNW
Cosmos 2251 Rocket 4.2 16:52:35 10° SSE 16:57:20 34° E 17:01:20 14° NE
ATLAS 2AS CENTAUR R/B 3.5 16:49:44 10° SW 16:57:38 64° NW 17:05:36 10° NNE
Feng Yun 1-1 Rocket 4.2 16:53:00 10° SSE 16:58:26 84° WSW 17:03:51 10° NNW
Cosmos 1302 Rocket 3.9 16:53:56 10° NNW 16:59:14 76° ENE 17:04:29 10° SSE
BREEZE-M R/B 3.6 16:53:22 10° W 16:59:30 50° NNW 17:01:47 19° NE
Cosmos 1862 Rocket 3.8 16:59:56 10° SSE 17:04:02 44° E 17:08:12 10° NNE
Cosmos 2279 Rocket 4.1 16:57:50 10° N 17:04:08 83° W 17:10:22 10° S
Cosmos 44 Rocket 4.3 17:01:47 10° NW 17:06:19 48° WSW 17:10:50 10° SSE
Cosmos 2237 Rocket 3.0 17:03:47 10° SSE 17:08:44 32° ESE 17:11:43 20° ENE
CZ-4 R/B 2.0 17:05:16 10° SE 17:08:45 31° ENE 17:12:12 10° N
Exosat Rocket 3.7 17:05:07 10° S 17:10:37 53° ESE 17:14:31 16° NE
Cosmos 1812 2.8 17:08:23 10° S 17:12:10 54° E 17:15:32 13° NNE
Cosmos 2322 Rocket 4.3 17:09:32 10° W 17:13:40 21° NW 17:17:50 10° N
SL-8 R/B 4.0 17:09:06 10° WNW 17:13:54 67° SSW 17:18:40 10° SE
Cosmos 1536 3.3 17:10:16 10° N 17:14:03 37° ENE 17:17:47 10° SE
SeaSat 1 4.0 17:17:12 17° NE 17:17:12 17° NE 17:19:49 10° N
SL-16 R/B 4.5 17:14:43 10° W 17:18:25 17° NW 17:22:08 10° N
Cosmos 1707 Rocket 4.4 17:16:06 10° SSW 17:20:26 52° WNW 17:24:50 10° N
Nadezhda 4 Rocket 3.9 17:17:57 10° S 17:24:13 71° E 17:30:32 10° NNE
Envisat 3.0 17:23:07 10° SSE 17:28:12 87° WSW 17:33:19 10° NNW
Cosmos 2219 Rocket 2.4 17:23:19 10° SSW 17:28:54 72° WNW 17:34:06 12° NNE
SMAP 4.5 17:25:41 10° SSW 17:30:04 40° W 17:34:28 10° NNW
USA 215 4.3 17:25:50 17° NE 17:30:05 34° NNW 17:35:51 10° WNW
Lacrosse 5 rocket 1.5 17:26:34 10° SSW 17:30:47 56° SE 17:31:54 41° E
STARLINK-67 4.0 17:29:47 10° W 17:32:15 28° NNW 17:32:26 28° NNW
ERBS 2.8 17:33:56 10° NW 17:37:13 57° SW 17:38:53 26° SSE
Cosmos 1980 3.7 17:32:49 10° S 17:38:20 59° ESE 17:41:05 30° NE
CENTAUR R/B 4.3 17:31:00 10° NW 17:38:41 45° WSW 17:46:48 10° S
COSMO-SKYMED 1 2.4 17:35:38 18° NNE 17:38:52 79° ESE 17:43:12 10° S
Cosmos 1908 Rocket 3.6 17:35:11 10° N 17:39:31 52° ENE 17:43:48 10° SSE
SL-4 R/B 2.1 17:38:12 10° WSW 17:41:59 63° NNW 17:42:51 48° NNE
Cosmos 1500 3.7 17:38:29 10° NNW 17:42:13 60° W 17:45:54 10° S
STARLINK-46 3.4 17:42:51 10° WSW 17:44:58 49° WSW 17:44:58 49° WSW
COSMOS 2428 3.3 17:40:43 10° SW 17:46:15 54° WNW 17:51:04 14° NNE
Shenzhou-11 Module 3.0 17:43:40 10° WSW 17:45:40 38° SW 17:45:40 38° SW
Cosmos 2026 Rocket 4.1 17:41:39 10° SSE 17:47:26 48° E 17:50:36 26° NNE
Cosmos 1992 Rocket 3.8 17:42:19 10° NNW 17:47:34 77° ENE 17:52:47 10° SSE
YAOGAN 1 2.4 17:44:43 10° SSE 17:49:01 70° ENE 17:53:20 10° N
FengYun 1-2 T 4.4 17:48:05 10° S 17:53:33 73° WSW 17:59:03 10° NNW
CSL-04 Rocket 3.4 17:49:41 10° SSE 17:54:57 78° ENE 18:00:15 10° NNW
Cosmos 292 Rocket 4.1 17:50:29 10° N 17:54:26 45° NNE 17:54:26 45° NNE
Cosmos 1943 Rocket 4.3 17:52:29 10° N 17:53:09 12° NNE 17:53:09 12° NNE
USA 116 4.4 17:58:59 21° NNE 18:02:36 87° ESE 18:07:51 10° SSW
CSL-04 Debris 4.1 17:59:04 10° SSE 18:04:33 86° WSW 18:10:02 10° NNW
Cosmos 1627 Rocket 4.3 18:00:10 10° S 18:06:14 72° E 18:10:30 21° NNE
YAOGAN 6 4.2 18:06:59 10° SSW 18:10:13 34° W 18:13:30 10° NNW
DMSP B5D1-3 4.4 18:16:20 76° ESE 18:16:20 76° ESE 18:21:21 10° S
Okean 1-7 4.3 18:12:03 10° S 18:14:17 30° S 18:14:17 30° S
BREEZE-M DEB (TANK) 3.3 18:13:08 10° W 18:15:45 38° WNW 18:15:45 38° WNW
RESURS DK-1 4.0 18:14:52 10° WSW 18:18:29 29° NW 18:19:34 26° NNW
ISS -1.5 18:15:08 10° WNW 18:16:28 22° NW 18:16:28 22° NW
NOAA 11 4.1 18:16:24 10° SSE 18:21:51 83° WSW 18:27:21 10° NNW
Cosmos 2278 Rocket 3.1 18:20:37 10° NW 18:26:02 48° WSW 18:31:26 10° S
Cosmos 1092 Rocket 4.4 18:20:26 10° SSW 18:26:41 62° W 18:32:56 10° N
SL-16 R/B 3.3 18:32:34 10° S 18:35:33 32° S 18:35:33 32° S
Cosmos 2333 Rocket 4.2 18:33:55 10° WSW 18:38:31 24° NW 18:41:54 15° N
CZ-4 R/B 3.8 18:40:47 10° SW 18:43:49 21° W 18:46:51 10° NW
Cosmos 2237 Rocket 3.2 18:47:17 10° SW 18:52:39 42° WNW 18:53:36 39° NNW
SeaSat 1 4.4 18:57:00 20° NNW 18:57:00 20° NNW 18:58:31 10° NNW
Lacrosse 5 rocket 4.2 19:06:30 10° W 19:07:34 16° W 19:07:34 16° W
